GEFSCGP_850_meantemp_204.txt.gz
Temperature
24 25 24 24 24 24 24 24 24 24 24 23 23 24 24 23 22 22 22 22 21 21 20 19 18 18 18 18 18 17 17 17 16 16 16 16 16 16 15 15 15 15 15 15
24 24 25 24 24 23 24 24 24 24 24 24 24 24 24 24 23 22 22 22 21 21 20 19 19 18 18 18 18 18 17 17 16 16 16 16 16 15 15 15 15 15 15 15
24 24 24 24 23 23 23 23 23 23 23 24 24 24 24 24 23 22 22 22 21 21 20 19 19 19 18 18 18 17 17 17 16 16 16 16 16 15 15 15 15 15 15 15
24 24 23 24 23 24 23 23 23 23 23 24 23 23 24 24 24 23 22 22 21 21 20 20 19 19 18 18 18 18 17 17 16 16 16 16 15 15 15 15 15 15 15 15
24 23 23 23 23 23 23 23 23 23 23 23 24 24 24 24 24 24 23 22 21 21 20 19 19 18 18 18 18 17 17 17 16 16 16 15 15 15 15 15 15 15 15 15
24 23 24 24 23 23 23 23 23 23 23 23 23 23 23 24 24 24 24 22 21 20 20 19 19 18 18 18 18 17 17 17 16 16 16 15 15 15 15 15 15 15 15 15
23 23 23 23 23 23 23 23 23 23 23 23 23 23 24 24 24 24 23 22 21 20 20 19 18 18 18 18 18 17 17 17 16 16 16 15 15 15 15 15 15 15 15 15
23 23 23 23 23 23 23 24 23 23 23 23 23 23 24 24 23 22 22 22 21 20 19 19 18 18 18 18 18 17 17 17 16 16 16 15 15 15 15 15 15 15 15 15
23 23 23 22 23 24 23 23 24 23 23 23 24 24 24 24 23 23 22 21 21 20 19 19 18 18 18 18 18 17 17 17 16 16 16 16 15 15 15 15 15 15 15 15
23 22 22 22 22 22 23 23 23 23 22 22 23 23 24 23 23 23 22 21 20 20 19 19 18 18 18 18 18 17 17 17 16 16 16 16 15 15 15 15 15 15 15 15
22 22 22 22 22 22 22 22 23 23 23 23 23 23 24 23 23 23 22 21 20 20 19 18 18 18 18 17 17 17 17 17 16 16 16 16 16 15 15 15 15 15 15 15
21 22 22 22 22 21 22 22 23 22 22 22 23 23 24 23 23 22 22 21 20 19 19 18 18 18 17 17 17 17 17 16 16 16 16 16 16 15 15 15 15 15 15 15
21 21 21 21 21 21 21 21 21 22 22 22 22 23 23 23 22 22 21 21 20 19 18 18 18 17 17 17 17 17 17 16 16 16 16 16 16 15 15 15 15 15 15 15
20 21 21 21 22 21 21 20 20 21 22 22 22 23 23 23 22 22 21 20 20 19 18 18 18 17 17 17 17 17 16 16 16 16 16 16 16 15 15 15 15 15 15 15
20 20 21 21 20 20 20 20 20 21 21 21 22 22 22 23 22 21 20 20 19 19 18 18 17 17 17 17 17 17 16 16 16 16 16 16 16 15 15 15 15 15 15 15
19 20 20 19 19 19 19 20 20 20 21 21 21 21 22 22 21 21 20 20 19 19 18 18 17 17 17 17 17 17 16 16 16 16 16 16 16 15 15 15 15 15 15 15
19 19 19 19 19 19 19 20 20 20 21 21 21 22 22 21 21 20 20 19 19 18 18 17 17 17 17 17 17 17 16 16 16 16 16 15 15 15 15 15 15 15 15 15
18 18 18 18 18 18 21 20 20 20 20 20 20 21 21 20 20 19 19 19 19 18 17 17 17 17 17 17 17 16 16 16 16 16 16 15 15 15 15 15 15 15 15 15
18 18 18 18 18 19 19 19 19 19 19 20 20 20 20 19 19 19 18 18 18 17 17 17 17 17 17 17 17 16 16 16 16 16 15 15 15 15 15 15 15 15 15 15
16 17 17 17 17 18 19 19 19 19 19 19 19 19 19 19 20 20 18 17 17 17 17 16 16 16 16 16 16 16 16 16 16 15 15 15 15 15 15 15 15 14 14 14
16 16 16 17 17 18 19 18 18 18 19 18 18 18 18 19 19 18 17 17 16 16 16 16 16 16 16 16 16 16 16 16 16 15 15 15 15 15 15 15 14 14 14 14
17 16 16 17 16 18 18 18 18 19 18 17 17 17 17 17 16 16 16 16 16 16 16 16 16 16 16 16 16 16 16 15 15 15 15 15 15 15 15 15 14 14 14 14
17 17 18 18 18 17 16 17 17 16 17 17 16 16 16 16 16 15 15 15 15 15 15 15 15 15 15 15 15 15 15 15 15 15 15 14 14 15 15 14 14 14 14 14
16 15 16 16 17 16 16 15 15 15 15 15 15 15 15 15 15 15 15 15 15 15 15 15 15 15 15 15 15 15 15 15 15 14 14 14 14 14 14 14 14 14 13 13
15 15 15 16 16 15 15 15 15 14 14 14 14 14 14 14 14 14 14 14 14 14 14 14 14 14 15 15 15 15 14 14 14 14 14 14 14 14 14 14 14 14 14 13
15 15 15 16 16 16 15 14 14 14 14 14 14 14 14 14 14 14 14 14 14 14 14 14 14 14 14 14 14 14 14 14 14 14 13 13 13 13 13 13 13 13 13 14

GEFSCGP_850_meantemp_210.txt.gz
Temperature
26 26 25 26 27 27 26 26 25 25 26 26 25 25 25 25 25 24 24 24 23 22 22 21 21 20 20 20 19 19 18 18 17 17 17 17 16 16 16 16 16 16 16 16
26 25 27 27 27 27 26 26 25 26 26 26 25 25 26 26 25 25 25 24 23 23 22 21 21 20 20 19 19 19 18 18 17 17 17 16 16 16 16 16 16 16 16 16
26 26 27 27 27 26 26 25 25 25 25 26 25 24 25 26 26 25 25 24 24 23 22 21 21 20 20 20 19 19 18 18 17 17 17 16 16 16 16 16 16 16 16 15
26 27 27 26 26 26 25 26 26 25 24 24 25 23 24 25 25 25 24 24 24 23 22 21 21 20 20 19 19 19 18 18 17 17 16 16 16 16 16 16 16 16 16 15
26 26 26 26 26 26 26 26 25 25 24 24 25 24 24 25 24 24 24 24 24 23 22 22 21 20 20 19 19 19 18 18 17 17 16 16 16 16 16 16 16 16 16 15
26 27 26 26 27 27 26 25 25 25 24 23 25 24 24 24 25 25 25 24 24 23 22 21 21 20 19 19 19 18 18 17 17 17 16 16 16 16 16 16 16 16 15 15
25 26 26 26 26 26 25 24 23 23 22 24 26 25 24 25 26 25 25 24 23 23 22 21 20 20 19 19 18 18 18 17 17 17 17 16 16 16 16 16 16 16 15 15
24 24 26 26 25 25 25 25 23 23 23 24 25 24 24 26 26 25 25 24 23 22 22 21 20 19 19 19 18 18 17 17 17 17 17 17 16 16 16 16 16 16 16 16
25 24 26 26 26 26 25 25 25 24 24 24 24 24 25 25 25 25 24 24 23 22 21 21 20 19 19 18 18 18 17 17 17 17 17 17 17 16 16 16 16 16 16 15
25 24 25 25 25 25 25 25 25 24 23 23 24 24 23 24 24 24 24 24 23 22 21 21 20 19 19 18 18 18 17 17 17 17 17 17 17 16 16 16 16 16 16 15
25 24 24 24 24 24 24 24 24 24 24 23 23 23 25 24 24 24 24 23 23 22 21 21 20 19 19 18 18 17 17 17 17 17 17 16 16 16 16 16 16 16 16 15
24 24 24 24 25 25 24 24 24 23 23 24 23 23 26 25 24 24 24 23 23 22 21 21 20 19 19 18 18 17 17 17 17 17 17 16 16 16 16 16 16 16 16 16
23 23 23 23 23 24 24 24 24 24 23 23 23 23 25 25 24 23 23 23 22 22 21 20 20 19 19 18 18 18 17 17 17 17 16 16 16 16 16 16 16 16 16 16
21 22 22 22 22 23 23 23 23 23 22 23 23 23 24 24 23 23 23 22 22 21 21 20 20 19 19 18 18 18 17 17 17 17 16 16 16 16 16 16 16 16 16 16
22 22 22 23 23 23 23 23 23 23 23 23 23 23 24 24 23 23 22 22 21 21 20 20 19 19 19 19 18 18 17 17 17 17 16 16 16 16 16 16 16 16 15 15
22 21 22 22 23 23 22 23 23 23 23 23 23 23 24 24 23 23 22 22 21 20 20 19 19 19 19 18 18 18 18 17 17 17 16 16 16 16 16 16 16 15 15 15
21 21 21 21 22 22 21 23 23 23 23 23 22 23 23 23 23 22 22 21 21 20 20 19 19 19 18 18 18 18 17 17 17 16 16 16 16 16 15 15 15 15 15 15
21 21 20 20 21 20 22 24 24 23 23 23 23 23 23 23 22 22 21 21 21 20 19 19 19 18 18 18 18 18 17 17 17 16 16 16 15 15 15 15 15 15 15 15
21 20 19 20 19 21 22 23 23 22 22 23 22 22 22 22 22 21 21 20 20 19 19 19 18 18 18 18 17 17 17 17 17 16 16 16 15 15 15 15 15 15 15 14
20 20 19 19 19 19 21 22 22 22 20 22 22 22 21 21 20 20 20 19 19 19 18 18 18 17 17 17 17 17 17 17 16 16 16 16 15 15 15 15 15 15 14 14
19 19 18 18 19 20 21 21 21 20 20 21 21 20 20 20 19 19 19 18 18 18 17 17 17 17 17 17 17 16 16 16 16 16 16 15 15 15 15 14 14 14 14 14
19 19 18 18 18 19 21 21 20 20 20 20 20 20 19 19 18 18 18 18 17 17 17 17 17 17 16 16 16 16 16 16 16 16 15 15 15 15 14 14 14 14 14 14
19 20 19 19 19 20 20 20 20 20 20 19 19 18 18 18 18 17 17 17 17 17 16 16 16 16 16 16 16 16 16 16 16 15 15 15 15 14 14 14 14 14 13 13
20 20 19 19 20 20 19 19 19 19 19 18 18 18 17 17 17 17 17 16 16 16 16 16 16 15 15 15 15 15 15 15 15 15 15 14 14 14 14 14 13 13 13 13
18 19 18 18 19 19 19 18 18 18 18 17 17 17 17 16 16 16 16 16 16 15 15 15 15 15 15 15 15 15 15 15 14 14 14 14 14 13 13 13 13 13 13 13
18 18 17 17 19 18 18 18 17 17 17 16 16 16 16 16 16 16 15 15 15 15 15 15 15 15 15 14 14 14 14 14 14 14 13 13 13 13 13 12 12 12 12 13

GEFSCGP_850_meantemp_216.txt.gz
Temperature
23 20 20 20 21 21 21 21 20 21 22 21 20 20 20 21 21 20 20 20 20 20 20 20 20 19 19 19 18 18 18 17 17 17 16 16 16 16 16 16 16 16 16 15
20 20 21 22 22 22 21 21 21 21 22 21 20 20 20 20 20 20 20 20 20 20 20 20 19 19 19 19 18 18 18 17 17 17 16 16 16 16 16 16 15 15 15 15
20 21 23 23 22 22 22 21 21 21 21 21 20 19 19 20 20 21 21 20 20 20 20 20 19 19 19 19 18 18 18 17 17 17 16 16 16 16 16 15 15 15 15 15
21 22 23 23 23 22 21 22 22 22 20 19 20 18 19 19 19 19 20 20 20 20 20 20 19 19 19 19 18 18 17 17 17 17 16 16 16 16 15 15 15 15 15 15
21 22 22 22 23 23 22 23 22 22 20 19 19 18 18 18 18 18 19 20 20 20 20 20 19 19 19 19 18 18 17 17 17 16 16 16 16 16 15 15 15 15 15 15
21 23 23 23 23 23 22 21 20 18 18 18 19 18 18 18 19 19 19 20 20 20 20 20 19 19 19 18 18 18 17 17 17 16 16 16 16 16 16 15 15 15 15 15
21 22 23 23 22 22 21 18 18 18 17 17 19 18 18 19 19 19 19 19 20 20 20 20 19 19 19 18 18 18 17 17 17 16 16 16 16 16 16 15 15 15 15 15
19 20 21 22 22 21 20 19 18 18 18 18 19 18 19 20 20 20 20 20 20 20 20 20 19 19 19 18 18 18 17 17 17 16 16 16 16 16 16 16 15 15 15 15
18 19 21 22 22 21 20 19 18 17 18 18 18 19 20 20 19 19 19 19 19 20 20 20 19 19 19 18 18 18 17 17 17 16 16 16 16 16 16 16 16 15 15 15
19 19 21 22 22 22 21 19 17 18 18 17 18 18 18 18 18 18 18 19 19 20 20 19 19 19 19 18 18 18 17 17 17 17 16 16 16 16 16 16 16 15 15 15
18 18 19 20 20 20 20 20 18 16 16 17 17 18 19 18 18 18 18 19 19 19 19 19 19 19 19 18 18 18 17 17 17 16 16 16 16 16 16 16 16 16 15 15
17 16 17 18 20 20 20 19 17 17 17 16 16 17 20 18 19 19 19 19 19 19 19 19 19 19 18 18 18 18 17 17 17 16 16 16 16 16 16 16 16 15 15 15
17 16 16 17 18 19 20 20 18 16 16 15 16 17 19 18 18 19 19 19 19 19 19 19 18 18 18 18 18 17 17 17 17 16 16 16 16 16 16 16 16 15 15 15
17 15 16 17 17 18 19 19 19 17 16 16 17 18 19 18 18 18 19 19 19 19 19 18 18 18 18 18 17 17 17 17 16 16 16 16 16 16 16 16 15 15 15 15
16 16 17 17 18 19 19 19 19 18 17 16 17 18 18 18 18 18 19 19 19 18 18 18 18 18 18 17 17 17 17 16 16 16 16 16 16 16 16 15 15 15 15 15
15 16 17 17 18 18 18 18 19 19 18 17 17 17 18 18 18 18 18 18 18 18 18 18 18 18 18 17 17 17 17 16 16 16 16 16 16 15 15 15 15 15 15 15
14 15 15 15 17 17 17 18 18 18 18 18 17 17 17 17 17 18 18 18 18 18 18 18 18 18 17 17 17 17 16 16 16 16 16 15 15 15 15 15 15 15 14 14
14 14 13 14 16 16 17 17 18 18 18 18 17 17 17 18 18 18 19 18 18 18 18 18 18 17 17 17 17 16 16 16 16 16 15 15 15 15 15 15 14 14 14 14
14 13 13 13 14 15 17 18 18 17 17 17 17 17 17 18 17 17 18 18 18 18 18 18 17 17 17 17 16 16 16 16 16 15 15 15 15 15 15 14 14 14 14 14
13 13 13 13 14 14 16 18 19 17 16 17 17 16 17 17 14 15 17 18 18 18 18 18 17 17 17 16 16 16 16 15 15 15 15 15 14 14 14 14 14 14 14 14
13 13 12 12 13 14 16 18 18 16 16 17 17 17 17 16 16 17 17 17 17 17 17 17 17 16 16 16 16 16 15 15 15 15 15 14 14 14 14 14 14 14 13 13
13 13 12 12 13 14 16 17 16 16 17 17 17 17 17 17 17 17 17 17 17 17 17 17 16 16 16 16 15 15 15 15 15 15 14 14 14 14 14 14 13 13 13 13
12 13 12 13 14 15 17 17 18 18 17 17 17 17 17 17 16 16 16 16 16 16 16 16 16 16 15 15 15 15 15 15 14 14 14 14 14 14 14 13 13 13 13 13
12 13 12 13 14 15 17 17 17 17 17 17 17 17 17 16 16 16 16 16 16 16 15 15 15 15 15 15 15 15 15 14 14 14 14 14 14 13 13 13 13 13 13 12
12 12 12 12 13 15 16 16 17 17 17 17 17 16 16 16 16 15 15 15 15 15 15 15 15 15 14 15 14 14 14 14 14 14 14 13 13 13 13 13 13 13 12 12
11 12 12 12 14 13 15 16 16 16 16 16 16 16 15 15 15 15 15 15 15 14 14 14 14 14 14 14 14 14 14 14 14 13 13 13 13 12 12 12 12 12 12 12

GEFSCGP_850_meantemp_222.txt.gz
Temperature
21 19 18 19 19 20 19 19 18 19 19 19 18 18 18 18 18 18 18 18 19 19 19 19 19 18 18 18 18 17 17 17 16 16 16 16 15 15 15 15 15 15 15 15
18 19 19 20 19 19 19 19 18 19 20 19 18 18 18 17 17 18 18 18 19 19 19 19 19 18 18 18 18 17 17 17 16 16 16 16 15 15 15 15 15 15 15 15
19 19 20 20 20 19 19 18 19 19 19 19 18 18 18 17 18 18 18 18 19 19 19 19 19 18 18 18 18 17 17 17 16 16 16 15 15 15 15 15 15 15 15 15
19 20 20 20 20 20 19 20 19 19 18 17 18 17 17 16 16 17 17 18 18 19 19 19 19 18 18 18 18 17 17 17 16 16 16 16 15 15 15 15 15 15 15 15
19 20 20 20 20 20 20 20 19 19 18 17 17 17 16 16 17 17 17 17 18 19 19 19 19 19 18 18 18 17 17 16 16 16 16 15 15 15 15 15 15 15 15 15
19 20 20 20 20 20 20 19 18 16 16 17 17 17 16 15 16 17 17 18 18 19 19 19 19 18 18 18 18 17 17 16 16 16 16 15 15 15 15 15 15 15 15 15
19 20 20 20 20 20 19 17 16 17 16 16 17 16 16 17 17 17 17 18 18 19 19 19 19 18 18 18 18 17 17 17 16 16 16 15 15 15 15 15 15 15 15 15
18 18 19 20 20 19 18 17 17 17 16 16 16 16 17 17 18 18 18 18 18 19 19 19 19 18 18 18 18 17 17 17 16 16 16 16 15 15 15 15 15 15 15 15
17 18 19 20 19 19 18 17 17 16 16 16 16 16 17 18 17 17 17 18 18 18 19 19 19 18 18 18 18 17 17 17 16 16 16 16 15 15 15 15 15 15 15 15
17 18 18 19 19 18 18 16 15 16 16 16 16 16 16 17 17 16 16 17 18 18 18 19 18 18 18 18 18 17 17 17 17 16 16 16 15 15 15 15 15 15 15 15
17 17 17 18 18 18 17 17 15 14 15 15 16 16 17 17 16 16 16 17 18 18 18 18 18 18 18 18 17 17 17 17 16 16 16 16 15 15 15 15 15 15 15 15
15 14 15 17 18 18 18 17 15 16 15 14 15 16 18 16 16 17 17 17 18 18 18 18 18 18 18 17 17 17 17 16 16 16 16 16 15 15 15 15 15 15 15 15
15 14 15 16 16 17 17 17 16 14 13 13 14 16 17 16 16 17 17 17 18 18 18 18 18 18 17 17 17 17 16 16 16 16 16 16 15 15 15 15 15 15 14 14
15 14 15 16 16 16 17 17 15 15 14 14 14 16 16 16 16 16 17 17 18 18 18 18 18 17 17 17 17 17 16 16 16 16 16 15 15 15 15 15 15 14 14 14
14 14 15 15 16 16 16 16 16 16 15 15 15 15 16 16 15 16 17 17 17 17 17 17 17 17 17 17 17 16 16 16 16 16 15 15 15 15 15 15 14 14 14 14
13 14 15 15 15 15 16 16 16 16 15 15 15 15 15 16 16 16 16 17 17 17 17 17 17 17 17 17 16 16 16 16 15 15 15 15 15 15 15 14 14 14 14 14
12 13 13 13 14 15 15 16 16 16 15 15 15 16 15 15 15 16 16 17 17 18 17 17 17 17 17 17 16 16 16 15 15 15 15 15 15 15 14 14 14 14 14 14
11 12 11 12 14 15 15 16 16 16 16 15 15 15 15 15 16 17 17 17 17 17 17 17 17 17 17 16 16 16 16 15 15 15 15 15 14 14 14 14 14 14 14 13
11 11 11 11 13 13 15 15 15 15 15 15 15 15 15 15 15 16 17 17 17 17 17 17 17 17 16 16 16 16 15 15 15 15 14 14 14 14 14 14 14 13 13 13
10 10 11 10 13 13 15 16 16 16 15 15 15 14 14 15 13 14 17 17 17 17 17 17 17 16 16 16 16 15 15 15 15 14 14 14 14 14 14 13 13 13 13 13
11 10 10 10 12 12 14 15 16 15 15 16 16 15 15 15 15 17 17 17 17 17 16 16 16 16 16 15 15 15 15 14 14 14 14 14 13 13 13 13 13 13 13 13
11 10 10 10 11 13 14 14 14 14 16 16 16 16 15 16 16 16 16 16 16 16 16 16 16 15 15 15 15 14 14 14 14 14 13 13 13 13 13 13 13 12 12 12
10 11 10 11 12 13 14 15 16 16 16 16 16 15 15 15 16 16 16 16 16 16 15 15 15 15 15 14 14 14 14 14 14 13 13 13 13 13 13 12 12 12 12 12
10 10 9 10 11 13 14 15 15 15 16 16 15 15 15 15 15 15 15 15 15 15 15 15 15 14 14 14 14 14 14 13 13 13 13 13 13 13 12 12 12 12 12 12
10 9 9 10 11 12 14 15 15 15 15 15 15 15 15 15 14 15 15 14 14 14 14 14 14 14 14 14 14 14 13 13 13 13 13 13 12 12 12 12 12 12 12 12
9 9 10 11 12 12 14 15 15 15 15 15 15 14 14 14 14 14 14 14 14 14 14 14 14 13 13 13 13 13 13 13 13 12 12 12 12 12 12 12 12 11 11 11